Houston / Dunn Helistop, TX
on Saturday, January 13, 2018

Saturday
       
Previous Day Next Day
Daily Summary
 ActualAverage (KHOU)Record (KHOU)
Temperature
Mean Temperature °F °C °F °C  
Max Temperature 51°F 11°C 61°F 16°C 81°F 27°C (2000)
Min Temperature 32°F 0°C 43°F 6°C 17°F -8°C (1912)
Degree Days
Heating Degree Days 24    
Moisture
Dew Point 18°F -8°C   
Average Humidity 40    
Maximum Humidity 55    
Minimum Humidity 24    
Precipitation
Precipitation 0.00 in / 0.00 cm in / cm in / cm ()
Wind
Wind Speed 10 mph / 16 km/h   
Max Wind Speed 14 mph / 23 km/h   
Max Gust Speed 20 mph / 32 km/h   
Visibility 10 miles / 16 kilometers   
Events     
Averages and records for this station are not official NWS values.
Key: T is trace of precipitation, MM is missing value
Source: NWS Daily Summary
Seasonal Weather Averages
Time(CST)TemperatureDew PointHumidity Pressure Visibility Wind DirectionWind SpeedGust SpeedPrecipitationEvents Conditions
12:15 AM 39.2°F 4.0°C 17.6°F -8.0°C 42% 30.37 in / 1028.3 hPa 10.0 miles / 16.1 kilometers North 12.7 mph / 20.4 km/h - N/A   Clear
12:35 AM 37.4°F 3.0°C 17.6°F -8.0°C 45% 30.37 in / 1028.3 hPa 10.0 miles / 16.1 kilometers North 11.5 mph / 18.5 km/h - N/A   Clear
12:55 AM 37.4°F 3.0°C 19.4°F -7.0°C 48% 30.37 in / 1028.3 hPa 10.0 miles / 16.1 kilometers North 11.5 mph / 18.5 km/h - N/A   Clear
1:15 AM 37.4°F 3.0°C 19.4°F -7.0°C 48% 30.37 in / 1028.3 hPa 10.0 miles / 16.1 kilometers North 10.4 mph / 16.7 km/h - N/A   Clear
1:35 AM 37.4°F 3.0°C 19.4°F -7.0°C 48% 30.37 in / 1028.3 hPa 10.0 miles / 16.1 kilometers North 10.4 mph / 16.7 km/h - N/A   Clear
2:55 AM 35.6°F 2.0°C 17.6°F -8.0°C 48% 30.39 in / 1029.0 hPa 10.0 miles / 16.1 kilometers North 8.1 mph / 13.0 km/h 15.0 mph / 24.1 km/h N/A   Clear
3:15 AM 35.6°F 2.0°C 17.6°F -8.0°C 48% 30.39 in / 1029.0 hPa 10.0 miles / 16.1 kilometers North 11.5 mph / 18.5 km/h - N/A   Clear
3:35 AM 35.6°F 2.0°C 17.6°F -8.0°C 48% 30.40 in / 1029.3 hPa 10.0 miles / 16.1 kilometers North 11.5 mph / 18.5 km/h - N/A   Clear
3:55 AM 35.6°F 2.0°C 17.6°F -8.0°C 48% 30.41 in / 1029.7 hPa 10.0 miles / 16.1 kilometers North 11.5 mph / 18.5 km/h - N/A   Clear
4:15 AM 33.8°F 1.0°C 17.6°F -8.0°C 52% 30.41 in / 1029.7 hPa 10.0 miles / 16.1 kilometers North 13.8 mph / 22.2 km/h - N/A   Clear
4:35 AM 33.8°F 1.0°C 17.6°F -8.0°C 52% 30.42 in / 1030.0 hPa 10.0 miles / 16.1 kilometers North 10.4 mph / 16.7 km/h 16.1 mph / 25.9 km/h N/A   Clear
4:55 AM 33.8°F 1.0°C 17.6°F -8.0°C 52% 30.43 in / 1030.4 hPa 10.0 miles / 16.1 kilometers North 11.5 mph / 18.5 km/h 17.3 mph / 27.8 km/h N/A   Clear
5:15 AM 33.8°F 1.0°C 17.6°F -8.0°C 52% 30.43 in / 1030.4 hPa 10.0 miles / 16.1 kilometers North 11.5 mph / 18.5 km/h 17.3 mph / 27.8 km/h N/A   Clear
6:35 AM 32.0°F 0.0°C 17.6°F -8.0°C 55% 30.47 in / 1031.7 hPa 10.0 miles / 16.1 kilometers North 10.4 mph / 16.7 km/h - N/A   Clear
6:55 AM 32.0°F 0.0°C 17.6°F -8.0°C 55% 30.48 in / 1032.1 hPa 10.0 miles / 16.1 kilometers North 10.4 mph / 16.7 km/h - N/A   Clear
7:15 AM 32.0°F 0.0°C 17.6°F -8.0°C 55% 30.50 in / 1032.7 hPa 10.0 miles / 16.1 kilometers North 11.5 mph / 18.5 km/h - N/A   Clear
7:35 AM 32.0°F 0.0°C 17.6°F -8.0°C 55% 30.51 in / 1033.1 hPa 10.0 miles / 16.1 kilometers North 11.5 mph / 18.5 km/h - N/A   Clear
7:55 AM 32.0°F 0.0°C 17.6°F -8.0°C 55% 30.51 in / 1033.1 hPa 10.0 miles / 16.1 kilometers North 10.4 mph / 16.7 km/h - N/A   Clear
8:15 AM 33.8°F 1.0°C 17.6°F -8.0°C 52% 30.53 in / 1033.7 hPa 10.0 miles / 16.1 kilometers North 10.4 mph / 16.7 km/h - N/A   Clear
8:35 AM 33.8°F 1.0°C 15.8°F -9.0°C 48% 30.54 in / 1034.1 hPa 10.0 miles / 16.1 kilometers North 13.8 mph / 22.2 km/h 19.6 mph / 31.5 km/h N/A   Clear
8:55 AM 35.6°F 2.0°C 15.8°F -9.0°C 44% 30.55 in / 1034.4 hPa 10.0 miles / 16.1 kilometers North 11.5 mph / 18.5 km/h - N/A   Clear
9:15 AM 37.4°F 3.0°C 15.8°F -9.0°C 41% 30.55 in / 1034.4 hPa 10.0 miles / 16.1 kilometers NNE 10.4 mph / 16.7 km/h - N/A   Clear
9:35 AM 37.4°F 3.0°C 17.6°F -8.0°C 45% 30.56 in / 1034.8 hPa 10.0 miles / 16.1 kilometers North 8.1 mph / 13.0 km/h - N/A   Clear
9:55 AM 39.2°F 4.0°C 17.6°F -8.0°C 42% 30.56 in / 1034.8 hPa 10.0 miles / 16.1 kilometers North 8.1 mph / 13.0 km/h - N/A   Clear
10:15 AM 39.2°F 4.0°C 15.8°F -9.0°C 39% 30.57 in / 1035.1 hPa 10.0 miles / 16.1 kilometers Calm Calm - N/A   Clear
10:35 AM 41.0°F 5.0°C 15.8°F -9.0°C 36% 30.57 in / 1035.1 hPa 10.0 miles / 16.1 kilometers Calm Calm 11.5 mph / 18.5 km/h N/A   Clear
10:55 AM 41.0°F 5.0°C 15.8°F -9.0°C 36% 30.57 in / 1035.1 hPa 10.0 miles / 16.1 kilometers North 6.9 mph / 11.1 km/h - N/A   Clear
11:15 AM 42.8°F 6.0°C 17.6°F -8.0°C 36% 30.56 in / 1034.8 hPa 10.0 miles / 16.1 kilometers NNW 5.8 mph / 9.3 km/h - N/A   Clear
11:35 AM 42.8°F 6.0°C 15.8°F -9.0°C 34% 30.56 in / 1034.8 hPa 10.0 miles / 16.1 kilometers Variable 5.8 mph / 9.3 km/h 11.5 mph / 18.5 km/h N/A   Clear
11:55 AM 44.6°F 7.0°C 15.8°F -9.0°C 31% 30.56 in / 1034.8 hPa 10.0 miles / 16.1 kilometers NNW 9.2 mph / 14.8 km/h 15.0 mph / 24.1 km/h N/A   Clear
12:15 PM 46.4°F 8.0°C 17.6°F -8.0°C 32% 30.55 in / 1034.4 hPa 10.0 miles / 16.1 kilometers North 8.1 mph / 13.0 km/h - N/A   Clear
12:35 PM 46.4°F 8.0°C 17.6°F -8.0°C 32% 30.54 in / 1034.1 hPa 10.0 miles / 16.1 kilometers Variable 6.9 mph / 11.1 km/h 13.8 mph / 22.2 km/h N/A   Clear
12:55 PM 48.2°F 9.0°C 17.6°F -8.0°C 30% 30.53 in / 1033.7 hPa 10.0 miles / 16.1 kilometers NNW 8.1 mph / 13.0 km/h 13.8 mph / 22.2 km/h N/A   Clear
1:15 PM 50.0°F 10.0°C 17.6°F -8.0°C 28% 30.52 in / 1033.4 hPa 10.0 miles / 16.1 kilometers Variable 8.1 mph / 13.0 km/h - N/A   Clear
1:35 PM 50.0°F 10.0°C 15.8°F -9.0°C 26% 30.52 in / 1033.4 hPa 10.0 miles / 16.1 kilometers Variable 4.6 mph / 7.4 km/h 12.7 mph / 20.4 km/h N/A   Clear
1:55 PM 50.0°F 10.0°C 15.8°F -9.0°C 26% 30.51 in / 1033.1 hPa 10.0 miles / 16.1 kilometers Variable 4.6 mph / 7.4 km/h 11.5 mph / 18.5 km/h N/A   Clear
2:15 PM 51.8°F 11.0°C 15.8°F -9.0°C 24% 30.51 in / 1033.1 hPa 10.0 miles / 16.1 kilometers Variable 4.6 mph / 7.4 km/h - N/A   Clear
2:35 PM 51.8°F 11.0°C 15.8°F -9.0°C 24% 30.51 in / 1033.1 hPa 10.0 miles / 16.1 kilometers NNW 8.1 mph / 13.0 km/h - N/A   Clear
2:55 PM 51.8°F 11.0°C 17.6°F -8.0°C 26% 30.51 in / 1033.1 hPa 10.0 miles / 16.1 kilometers NW 8.1 mph / 13.0 km/h - N/A   Clear
3:15 PM 51.8°F 11.0°C 15.8°F -9.0°C 24% 30.50 in / 1032.7 hPa 10.0 miles / 16.1 kilometers NNW 10.4 mph / 16.7 km/h - N/A   Clear
3:35 PM 51.8°F 11.0°C 15.8°F -9.0°C 24% 30.50 in / 1032.7 hPa 10.0 miles / 16.1 kilometers North 10.4 mph / 16.7 km/h - N/A   Clear
3:55 PM 51.8°F 11.0°C 15.8°F -9.0°C 24% 30.49 in / 1032.4 hPa 10.0 miles / 16.1 kilometers NNW 9.2 mph / 14.8 km/h - N/A   Clear
4:15 PM 51.8°F 11.0°C 15.8°F -9.0°C 24% 30.49 in / 1032.4 hPa 10.0 miles / 16.1 kilometers NNW 5.8 mph / 9.3 km/h 12.7 mph / 20.4 km/h N/A   Clear
4:35 PM 51.8°F 11.0°C 17.6°F -8.0°C 26% 30.49 in / 1032.4 hPa 10.0 miles / 16.1 kilometers Variable 5.8 mph / 9.3 km/h - N/A   Clear
4:55 PM 51.8°F 11.0°C 17.6°F -8.0°C 26% 30.49 in / 1032.4 hPa 10.0 miles / 16.1 kilometers NNW 9.2 mph / 14.8 km/h - N/A   Clear
6:15 PM 48.2°F 9.0°C 19.4°F -7.0°C 32% 30.50 in / 1032.7 hPa 10.0 miles / 16.1 kilometers NNW 8.1 mph / 13.0 km/h - N/A   Clear
6:35 PM 48.2°F 9.0°C 19.4°F -7.0°C 32% 30.50 in / 1032.7 hPa 10.0 miles / 16.1 kilometers NNW 6.9 mph / 11.1 km/h - N/A   Clear
6:55 PM 48.2°F 9.0°C 19.4°F -7.0°C 32% 30.51 in / 1033.1 hPa 10.0 miles / 16.1 kilometers NNW 8.1 mph / 13.0 km/h - N/A   Clear
7:15 PM 46.4°F 8.0°C 19.4°F -7.0°C 34% 30.52 in / 1033.4 hPa 10.0 miles / 16.1 kilometers NNW 8.1 mph / 13.0 km/h - N/A   Clear
7:35 PM 46.4°F 8.0°C 19.4°F -7.0°C 34% 30.52 in / 1033.4 hPa 10.0 miles / 16.1 kilometers Variable 8.1 mph / 13.0 km/h - N/A   Clear
8:15 PM 46.4°F 8.0°C 21.2°F -6.0°C 37% 30.53 in / 1033.7 hPa 10.0 miles / 16.1 kilometers NNW 6.9 mph / 11.1 km/h - N/A   Clear
8:35 PM 44.6°F 7.0°C 21.2°F -6.0°C 39% 30.53 in / 1033.7 hPa 10.0 miles / 16.1 kilometers North 9.2 mph / 14.8 km/h - N/A   Clear
8:55 PM 44.6°F 7.0°C 21.2°F -6.0°C 39% 30.54 in / 1034.1 hPa 10.0 miles / 16.1 kilometers North 5.8 mph / 9.3 km/h - N/A   Clear
9:15 PM 44.6°F 7.0°C 21.2°F -6.0°C 39% 30.55 in / 1034.4 hPa 10.0 miles / 16.1 kilometers North 5.8 mph / 9.3 km/h - N/A   Clear
9:35 PM 42.8°F 6.0°C 23.0°F -5.0°C 46% 30.55 in / 1034.4 hPa 10.0 miles / 16.1 kilometers North 5.8 mph / 9.3 km/h - N/A   Clear
9:55 PM 42.8°F 6.0°C 23.0°F -5.0°C 46% 30.56 in / 1034.8 hPa 10.0 miles / 16.1 kilometers North 4.6 mph / 7.4 km/h - N/A   Clear
10:15 PM 44.6°F 7.0°C 23.0°F -5.0°C 43% 30.56 in / 1034.8 hPa 10.0 miles / 16.1 kilometers North 4.6 mph / 7.4 km/h - N/A   Clear
10:35 PM 44.6°F 7.0°C 21.2°F -6.0°C 39% 30.55 in / 1034.4 hPa 10.0 miles / 16.1 kilometers NE 8.1 mph / 13.0 km/h - N/A   Clear
10:55 PM 42.8°F 6.0°C 21.2°F -6.0°C 42% 30.55 in / 1034.4 hPa 10.0 miles / 16.1 kilometers NE 8.1 mph / 13.0 km/h - N/A   Clear
11:15 PM 42.8°F 6.0°C 23.0°F -5.0°C 46% 30.56 in / 1034.8 hPa 10.0 miles / 16.1 kilometers NE 9.2 mph / 14.8 km/h - N/A   Clear
11:35 PM 42.8°F 6.0°C 23.0°F -5.0°C 46% 30.55 in / 1034.4 hPa 10.0 miles / 16.1 kilometers ENE 8.1 mph / 13.0 km/h - N/A   Clear

Astronomy

Sunrise: 07:17 AM (CST) Moon Rise: 04:24 AM (CST) 1 / 13
Sunset: 05:43 PM (CST) Moon Set: 03:17 PM (CST) 1 / 13
Moon Phase
Jan. 13 Jan. 17 Jan. 24 Jan. 31 Feb. 07
View the Full Star Chart!
Powered by Weather Underground, Inc.